Alexandria, LA

7:19 PM CDT on June 26, 2017 (GMT -0500)
Alexandria International

Weather History for KAEX - December, 1997

Change the Weather History Date:

Sunday, December 21, 1997

  Actual Average Record
Temperature  
Mean Temperature 58 °F 50 °F  
Max Temperature 71 °F 60 °F 79 °F (1948)
Min Temperature 44 °F 40 °F 18 °F (1901)
Degree Days  
Heating Degree Days 6 16  
Month to date heating degree days 305  
Since 1 July heating degree days 630  
Growing Degree Days 8 (Base 50)    
Moisture  
Dew Point 55 °F    
Average Humidity 84    
Maximum Humidity 100    
Minimum Humidity 50    
Precipitation  
Precipitation 0.00 in 0.16 in 2.99 in (1972)
Month to date precipitation 4.61  
Year to date precipitation 54.41  
Snow  
Snow 0.00 in - T in (1963)
Month to date snowfall  
Since 1 July snowfall  
Snow Depth -    
Sea Level Pressure  
Sea Level Pressure 29.79 in    
Wind  
Wind Speed 12 mph (SW)    
Max Wind Speed 17 mph    
Max Gust Speed -    
Visibility 8 miles    
Events Rain    
T = Trace of Precipitation, MM = Missing Value Source: NWS Daily Summary

Daily Weather History Graph

Daily Weather History Graph

Search for Another Location

Airport or City:

Trip Planner

Search our weather history database for the weather conditions in past years. The results will help you decide how hot, cold, wet, or windy it might be!

Date:

Astronomy

Dec. 21, 1997 Rise Set
Actual Time 7:05 AM CST 5:11 PM CST
Civil Twilight 6:38 AM CST 5:38 PM CST
Nautical Twilight 6:08 AM CST 6:08 PM CST
Astronomical Twilight 5:38 AM CST 6:38 PM CST
Moon No Moon Rise 12:08 PM CST (12/21)
Length of Visible Light 11h 00m
Length of Day
10h 06m
Waning Gibbous, 51% of the Moon is Illuminated
Dec 21
Waning Gibbous
Dec 21
Last Quarter
Dec 29
New
Jan 5
First Quarter
Jan 12
Full

Hourly Weather History & Observations

Time (CST) Temp. Windchill Dew Point Humidity Pressure Visibility Wind Dir Wind Speed Gust Speed Precip Events Conditions
12:47 AM 55.4 °F - 55.4 °F 100% 29.83 in 5.0 mi ESE 13.8 mph - N/A Rain Rain
1:57 AM 53.6 °F - 53.6 °F 100% 29.76 in 5.0 mi SE 17.3 mph - N/A Rain Rain
3:56 AM 51.8 °F - 51.8 °F 100% 29.76 in - SSE 9.2 mph - N/A Rain Light Rain
4:50 AM 59.0 °F - 59.0 °F 100% 29.77 in 3.0 mi North 8.1 mph - N/A Rain Rain
5:55 AM 60.8 °F - 60.8 °F 100% 29.72 in 7.0 mi SE 11.5 mph - N/A Rain Rain
6:55 AM 60.8 °F - 60.8 °F 100% 29.71 in 7.0 mi ESE 9.2 mph - N/A   Mostly Cloudy
7:50 AM 62.6 °F - 62.6 °F 100% 29.72 in 7.0 mi SE 11.5 mph - N/A   Mostly Cloudy
8:54 AM 64.4 °F - 64.4 °F 100% 29.74 in 7.0 mi SW 13.8 mph - N/A   Overcast
9:50 AM 66.2 °F - 64.4 °F 94% 29.76 in 7.0 mi SSW 13.8 mph - N/A   Overcast
10:50 AM 68.0 °F - 64.4 °F 88% 29.76 in 10.0 mi SW 11.5 mph - N/A   Mostly Cloudy
11:50 AM 69.8 °F - 62.6 °F 78% 29.76 in 10.0 mi SW 11.5 mph - N/A   Scattered Clouds
12:50 PM 71.6 °F - 60.8 °F 69% 29.72 in 10.0 mi SSW 10.4 mph - N/A   Scattered Clouds
1:50 PM 71.6 °F - 57.2 °F 60% 29.72 in 10.0 mi WSW 11.5 mph - N/A   Scattered Clouds
2:55 PM 71.6 °F - 57.2 °F 60% 29.74 in 10.0 mi WSW 17.3 mph - N/A   Clear
3:50 PM 71.6 °F - 51.8 °F 50% 29.75 in 10.0 mi West 13.8 mph - N/A   Clear
4:50 PM 68.0 °F - 50.0 °F 52% 29.78 in 10.0 mi WSW 11.5 mph - N/A   Clear
5:47 PM 62.6 °F - 48.2 °F 59% 29.80 in 10.0 mi WSW 9.2 mph - N/A   Clear
6:47 PM 59.0 °F - 48.2 °F 67% 29.84 in 10.0 mi WSW 11.5 mph - N/A   Clear
7:50 PM 53.6 °F - 46.4 °F 77% 29.89 in 10.0 mi WSW 11.5 mph - N/A   Clear
8:50 PM 51.8 °F - 44.6 °F 76% 29.91 in 10.0 mi West 11.5 mph - N/A   Clear
9:50 PM 48.2 °F - 46.4 °F 93% 29.92 in 10.0 mi SW 11.5 mph - N/A   Clear
10:50 PM 46.4 °F 42.9 °F 46.4 °F 100% 29.92 in 10.0 mi SW 6.9 mph - N/A   Clear
11:47 PM 44.6 °F - 44.6 °F 100% 29.94 in 10.0 mi Calm Calm - N/A   Clear